OneWeb SL0499

operational
NORAD ID: 54117 Int'l Des: 2022-138 Owner: ONEWEBN Country: UK Constellation: oneweb
LEOCIRCULARPOLARONEWEB_TYPE

About OneWeb SL0499

Description loading...

Live Position

Loading 3D Globe...

Upcoming Passes

Altitude History

Altitude vs Time

uPlot chart will show altitude changes over time

Two-Line Element Set

1 54117U 22138E 25260.79915301 .00000008 00000-0 -13375-4 0 9996
2 54117 87.9281 359.1414 0001722 92.8967 267.2363 13.19725017140892
Epoch: Sep 17, 2025 • Age: 14 hours

Current Status

Altitude 1211.9 km
Velocity 7.25 km/s
Sub-Earth Point -65.31°S, 48.64°E
Launch Date Oct 22, 2022
Age 2.9 years
Type internet

Technical Details

Classification Payload
Mass 148.00 kg
Dry Mass 140.00 kg
Total Mass 148.00 kg
Length 1.30 m
Diameter 1.00 m
Span 5.00 m
Shape Trapezoid+2 pan
Manufacturer ONEWUS
Bus Type ARROW
Phase Status In Orbit
Owner/State ONEWEBN/UK

Large Constellations

Loading constellations...